Location: NJAA Observatory
(40.6819°N, 74.8979°W)
Time: 01:30:59
(UTC-05:00)

Cosmos 2237 Rocket - Visible Passes

Search period start: 21 November 2017 00:00
Search period end: 01 December 2017 00:00
Orbit: 833 x 851 km, 71.0° (Epoch: 20 November)

Date Brightness Start Highest point End Pass type
(mag) Time Alt. Az. Time Alt. Az. Time Alt. Az.
21 Nov 4.2 03:57:43 18° NNE 03:57:43 18° NNE 03:59:08 10° NNE visible
21 Nov 4.2 05:39:36 11° NW 05:39:36 11° NW 05:40:16 10° NNW visible
22 Nov 4.6 03:43:45 13° NNE 03:43:45 13° NNE 03:44:18 10° NNE visible
22 Nov 4.3 05:25:36 10° NNW 05:25:36 10° NNW 05:25:42 10° NNW visible
